Wind_Speed
15 15 14 13 11 10 5 3 3 3 3 6 3 9 6 8 19 22 18 19 1 8 12 10 9 9 7 11 7 4 2 1 4 7 18 1 4 3 8 7 8 5 7 10
15 16 15 13 10 6 2 2 4 12 8 3 8 6 16 18 20 22 18 12 4 6 7 5 6 11 13 9 8 3 3 3 4 7 7 4 4 6 12 16 9 16 7 7
16 16 15 12 11 9 4 2 3 2 2 2 8 8 11 15 15 21 20 16 6 6 6 7 7 12 10 11 6 5 5 1 4 6 12 14 12 17 5 4 3 6 9 20
17 17 15 13 13 11 7 2 3 4 3 4 9 9 7 14 8 11 10 6 7 7 9 9 8 9 10 11 13 4 4 5 8 15 18 19 19 22 18 14 5 5 8 12
17 16 14 15 15 12 10 2 2 3 5 14 7 7 5 15 15 5 7 9 12 9 9 10 4 7 5 2 8 6 3 5 6 14 16 21 21 23 20 17 15 9 14 16
15 16 15 14 15 13 5 8 12 3 4 8 8 4 7 9 13 9 7 10 9 9 6 4 3 4 6 6 3 2 1 2 3 17 14 19 18 12 15 18 15 10 13 16
17 18 19 17 17 16 15 6 4 4 5 6 7 11 7 8 15 12 6 6 3 1 3 6 4 8 11 11 11 9 5 3 2 7 5 13 13 13 17 16 16 10 9 10
18 18 18 14 14 13 19 12 6 2 3 4 7 9 10 11 7 12 4 8 5 5 2 2 5 4 5 11 18 15 13 6 2 5 5 10 14 4 8 4 6 11 8 11
18 17 17 16 15 14 18 19 15 3 3 4 4 3 6 7 4 5 6 7 5 1 3 2 0 3 3 5 8 11 15 10 7 3 4 5 3 8 12 6 2 8 9 11
18 19 18 18 15 15 17 10 19 6 2 5 4 1 2 3 3 4 4 6 5 2 2 1 3 4 5 4 3 2 11 9 13 7 4 7 9 6 5 2 2 3 4 5
19 19 19 19 17 16 18 17 19 9 3 5 8 6 6 3 1 1 4 5 4 1 3 3 4 2 3 5 9 5 8 8 5 4 2 8 7 4 1 3 3 3 2 4
24 23 22 22 22 19 17 12 17 17 6 4 14 13 15 12 11 4 0 2 2 2 3 2 2 2 2 4 3 4 2 1 3 7 6 2 3 2 1 4 1 2 4 7
25 25 24 23 23 22 20 19 14 11 2 5 8 9 21 24 25 13 3 2 3 3 3 2 3 3 2 3 3 7 6 2 2 4 5 6 7 9 3 2 2 4 6 3
27 26 26 25 23 23 22 21 22 16 1 3 3 6 9 13 15 22 17 13 10 3 2 2 3 3 2 3 5 4 4 1 4 4 0 1 6 4 6 7 8 5 6 8
29 28 26 25 23 23 22 24 22 22 5 2 4 10 14 11 15 18 21 16 4 2 2 2 3 3 3 3 3 3 3 3 4 2 5 4 12 13 10 10 3 6 9 9
32 29 25 24 23 22 17 3 21 26 21 2 3 4 4 14 12 15 9 7 4 3 2 2 3 4 3 2 3 3 5 7 8 3 5 13 8 6 8 11 12 12 12 10
31 28 28 24 24 27 9 3 1 25 23 2 3 3 4 18 13 1 2 6 3 3 2 4 2 3 2 2 4 11 14 14 14 12 10 5 4 4 6 12 14 16 16 15
27 30 28 25 24 23 18 10 3 25 8 3 3 4 3 5 3 3 3 3 2 3 2 2 3 2 3 4 10 10 12 10 8 8 8 5 8 12 9 12 12 12 11 10
22 31 29 19 13 4 8 25 3 15 4 4 3 2 2 2 2 1 1 3 2 4 4 3 4 3 4 7 6 7 11 9 8 9 9 9 9 9 10 12 10 11 10 10
35 30 5 3 10 21 24 9 5 2 2 2 3 3 3 3 2 1 1 2 2 2 5 3 3 2 10 12 12 11 14 14 15 12 12 10 11 9 10 8 7 9 9 10
10 3 2 11 35 7 2 3 3 3 3 4 4 6 3 2 3 2 2 2 0 1 3 5 3 2 6 11 11 10 12 14 13 12 11 11 10 8 6 8 10 9 12 11
12 16 19 9 4 2 4 5 4 4 5 4 3 4 5 1 3 2 2 2 0 4 1 2 1 3 9 11 12 12 11 12 12 13 11 11 12 10 9 9 10 13 17 18
26 5 2 4 2 5 5 6 3 3 3 3 2 3 3 2 2 2 1 2 4 0 1 2 3 5 8 10 10 11 11 13 11 11 12 11 11 13 10 10 12 15 18 19
3 4 6 3 5 4 3 1 3 1 3 3 4 2 3 2 2 2 3 4 1 2 1 2 3 6 6 7 7 8 10 9 8 10 10 10 10 11 13 13 13 14 16 17
2 2 3 2 1 3 1 1 2 4 2 3 3 3 3 1 3 3 2 3 4 2 2 2 3 4 4 6 7 6 6 6 7 8 6 8 10 11 13 14 16 19 19 20
3 6 2 2 4 3 3 4 3 4 3 2 3 3 3 2 3 3 4 2 3 2 2 2 2 5 5 4 4 4 5 8 7 9 10 12 12 11 13 18 18 19 21 20
4 3 4 2 5 5 3 3 3 3 2 2 2 4 4 1 2 3 3 3 1 2 2 1 2 3 4 4 4 7 7 8 9 10 11 11 13 14 15 13 17 21 23 24
Wind_Direction
282 288 288 284 289 288 270 262 263 288 342 193 207 236 233 239 275 286 286 291 322 300 316 315 321 316 314 28 35 345 79 257 292 283 291 165 166 236 320 225 237 224 229 252
280 283 282 276 266 268 239 247 267 287 199 246 237 252 258 253 261 268 271 272 221 252 270 295 300 311 320 2 8 6 359 334 345 330 332 341 8 350 328 327 243 240 246 253
279 275 277 273 262 254 205 276 288 276 136 242 275 286 279 289 287 262 263 281 266 284 282 285 285 304 310 327 341 112 66 104 244 261 281 311 304 305 273 208 301 338 300 303
275 269 263 260 257 241 198 208 253 251 274 241 244 247 259 283 283 307 276 229 249 264 281 291 280 279 276 279 283 208 155 215 240 264 276 288 288 289 289 282 264 198 253 292
271 272 261 250 246 235 209 244 233 322 308 275 262 308 255 262 276 227 332 324 303 325 249 261 315 4 19 348 340 358 351 251 263 274 277 278 280 279 280 275 278 272 294 281
262 266 265 259 248 226 218 214 258 303 273 305 261 221 289 315 324 291 257 219 232 274 303 351 307 270 266 253 254 324 303 249 260 259 265 286 280 262 271 277 280 278 268 272
262 256 263 265 247 226 220 232 270 208 256 215 272 282 262 314 303 288 330 340 284 356 351 329 299 257 252 243 240 214 213 154 265 272 315 266 262 270 258 248 261 288 19 18
260 255 256 255 247 232 215 226 222 275 264 275 304 324 346 320 289 273 257 264 277 142 136 28 302 295 263 241 235 227 213 211 235 277 221 285 294 359 345 262 150 36 17 18
255 254 253 255 253 241 227 236 231 214 320 255 317 39 352 301 309 315 272 276 137 213 111 76 247 259 324 311 330 238 204 195 211 218 251 242 237 19 334 320 97 346 20 3
255 253 254 258 254 245 228 238 234 250 275 261 279 240 290 298 35 313 329 350 272 84 90 235 226 243 251 270 262 276 195 190 215 226 249 282 293 326 277 349 203 263 330 339
252 251 252 254 255 245 226 239 234 221 238 272 274 291 291 287 204 324 354 332 38 303 203 200 237 246 315 281 276 253 184 175 189 183 187 260 321 286 349 169 47 337 350 354
255 251 247 253 254 248 228 231 238 239 245 264 316 290 274 274 260 175 272 270 339 314 308 23 330 294 280 286 290 339 230 155 177 170 206 84 27 5 303 111 128 359 319 305
254 249 248 248 244 238 225 218 222 233 255 291 252 258 266 259 252 251 187 216 198 213 148 13 307 285 283 308 315 3 347 318 276 13 350 358 40 327 122 136 239 247 265 288
254 253 254 246 236 230 221 214 215 217 284 256 284 296 253 266 245 234 232 233 256 250 141 222 249 249 301 270 272 283 243 271 273 243 60 117 209 240 291 242 225 266 66 72
249 251 247 238 229 222 216 221 221 216 202 287 295 287 277 275 234 223 227 242 230 181 257 194 248 253 291 292 274 262 35 336 22 353 51 303 282 278 248 257 154 86 90 63
246 242 233 224 217 205 191 216 233 223 215 270 275 306 286 277 245 214 209 202 200 177 200 222 244 244 326 290 282 298 31 348 267 264 218 220 261 320 11 104 99 86 80 73
241 229 216 212 204 190 180 184 160 199 183 211 274 273 250 234 227 160 226 216 185 146 181 219 236 274 186 247 270 279 292 294 294 295 296 357 31 340 17 111 105 95 88 76
234 213 200 195 192 186 207 224 149 164 139 169 248 262 275 159 156 204 161 152 146 165 196 218 223 239 198 244 243 265 274 293 297 314 39 26 14 22 77 138 121 95 90 91
181 180 175 168 180 148 193 204 166 165 160 184 216 222 249 139 170 158 128 151 176 169 212 210 161 215 224 235 283 347 5 4 5 355 13 44 40 11 16 65 92 102 103 100
156 147 127 154 173 129 127 139 174 218 226 251 228 206 252 144 131 173 147 189 219 205 225 173 173 254 35 36 39 28 16 16 23 30 20 10 13 360 12 61 112 119 117 114
130 117 128 134 135 106 159 148 171 174 214 213 217 200 181 231 126 208 190 198 271 245 253 157 209 127 26 26 29 38 28 12 18 22 15 12 25 8 356 94 95 102 110 111
151 117 119 122 110 154 178 171 165 195 215 198 184 189 178 149 93 103 290 163 118 251 306 156 184 56 25 24 14 15 38 25 10 18 12 15 19 24 66 84 90 98 106 112
121 92 115 157 167 173 197 159 181 185 197 173 136 71 121 48 63 84 125 170 227 271 43 131 61 38 29 19 15 360 23 20 10 15 21 22 30 39 73 91 96 108 109 115
113 148 136 181 183 215 162 194 135 261 115 115 111 96 126 136 104 150 209 235 270 255 240 99 56 32 19 21 11 8 11 17 23 20 22 33 49 54 61 80 104 110 111 117
76 57 94 84 101 59 71 357 65 2 328 86 74 53 90 78 141 202 230 229 228 30 90 73 47 19 17 16 14 19 16 32 46 33 24 38 53 65 68 75 91 102 104 108
47 30 76 104 96 53 44 59 63 5 338 22 63 135 160 201 181 174 216 229 56 59 61 56 8 15 20 20 20 9 61 58 53 59 65 67 64 75 79 78 84 92 102 103
49 39 5 34 69 63 44 42 16 312 359 104 149 159 205 228 159 78 26 35 78 114 97 67 40 26 7 11 33 34 72 79 79 82 82 78 79 84 85 82 80 88 91 94
Height
801 801 801 801 801 801 801 801 799 784 784 790 786 781 769 763 757 755 753 741 738 743 739 734 732 728 721 718 721 726 721 727 734 719 705 707 713 718 714 717 713 706 706 692
798 798 798 798 799 799 801 799 792 783 782 782 778 769 764 760 758 752 746 740 737 739 743 749 734 730 721 722 723 726 724 733 740 723 710 701 709 711 718 725 698 700 712 686
793 794 794 795 795 797 800 800 796 782 780 780 780 775 771 767 753 748 741 738 736 740 744 740 742 734 724 723 725 724 725 731 738 745 732 724 726 716 711 738 723 716 707 687
788 789 790 791 793 794 798 798 790 781 793 776 776 773 766 763 767 753 736 737 739 742 747 745 742 736 731 726 723 724 729 742 735 729 724 722 719 712 706 706 704 717 707 704
784 784 785 787 788 791 794 793 790 782 780 772 768 770 760 758 752 765 753 753 741 743 743 743 746 746 742 739 735 733 727 737 734 732 723 719 717 706 700 695 691 691 687 683
779 780 781 782 783 787 786 788 787 787 775 775 768 763 753 753 757 747 738 746 746 745 744 745 742 744 744 743 743 742 744 740 742 735 726 718 716 701 694 687 682 685 690 679
773 775 776 777 779 783 784 785 784 781 774 769 764 750 749 748 755 751 741 737 745 744 740 743 741 740 736 736 735 735 740 746 749 739 736 740 692 687 679 678 673 672 683 685
768 769 771 773 775 777 779 782 780 777 770 760 755 752 752 749 747 747 741 739 741 739 742 759 748 744 735 725 721 725 729 738 746 744 728 715 693 683 675 675 682 690 688 684
762 764 765 768 771 773 776 776 778 780 772 766 756 761 763 762 756 752 743 738 740 743 755 763 759 752 734 727 728 706 716 727 738 743 733 731 688 684 678 674 690 694 688 686
757 759 761 763 765 768 771 771 773 775 773 762 759 765 760 760 761 762 749 754 747 742 751 768 759 744 720 728 723 714 718 728 731 740 743 716 688 679 676 693 706 694 690 687
751 753 756 758 760 763 766 766 769 771 769 762 760 758 760 759 759 765 760 757 755 752 753 760 744 741 724 717 702 706 715 728 732 734 745 729 686 680 685 695 691 690 688 687
744 747 750 752 754 757 761 763 765 768 769 762 756 755 753 754 754 759 758 761 758 756 749 743 743 740 735 725 716 710 713 706 713 719 715 697 694 697 692 690 691 690 689 687
737 740 742 745 747 751 755 758 762 765 765 760 755 747 746 748 749 751 758 755 751 754 757 760 752 739 735 729 719 718 717 710 708 705 695 695 690 691 689 688 687 685 685 685
728 731 734 737 741 745 751 754 757 762 763 761 748 741 742 740 741 744 746 747 749 751 753 759 756 749 732 731 722 720 710 715 714 707 700 695 699 694 687 685 683 683 683 688
719 723 726 730 735 741 747 751 753 757 761 755 748 741 735 732 735 737 740 743 746 749 752 753 747 739 732 728 719 715 703 705 707 707 707 709 696 685 682 682 680 684 685 692
709 714 719 724 730 738 745 748 748 750 756 758 753 736 730 728 728 730 733 736 741 745 747 746 741 732 733 735 722 698 697 698 698 697 692 690 685 682 680 681 686 690 694 697
697 704 712 719 726 732 737 738 737 739 752 756 752 739 724 719 723 728 731 732 735 740 745 742 738 733 731 735 725 701 699 697 693 689 687 687 685 685 681 687 692 695 700 703
684 696 706 715 723 732 735 734 735 740 747 753 748 739 726 716 723 728 725 730 731 737 737 736 733 728 728 726 706 700 695 692 691 688 687 690 687 686 687 690 694 699 704 709
679 691 705 714 719 722 724 732 736 736 743 742 738 734 728 714 717 720 723 724 729 731 730 729 729 725 722 705 703 705 704 700 696 692 692 691 690 694 692 693 699 704 710 713
679 694 703 710 713 718 725 735 738 740 736 732 729 725 729 717 720 724 727 725 728 735 722 715 725 719 717 715 718 717 714 709 704 702 702 701 701 699 698 696 696 703 710 716
682 691 699 703 711 718 725 726 728 729 727 725 718 717 720 712 721 724 724 727 727 725 715 717 714 714 726 722 722 722 723 720 717 715 713 711 711 708 704 705 709 712 715 719
677 683 694 703 711 715 715 716 721 720 715 708 709 708 709 712 712 722 725 728 725 724 709 714 714 731 732 730 730 728 731 729 726 724 721 719 717 714 712 714 717 719 721 724
679 687 693 696 704 703 706 707 706 714 701 699 703 708 712 714 715 723 726 724 727 711 727 719 731 738 737 737 736 735 734 733 732 730 729 726 724 721 719 720 723 724 725 729
678 682 686 689 697 695 694 694 692 697 695 698 702 712 714 718 720 720 719 725 711 710 715 727 740 744 744 742 741 740 739 738 737 736 734 732 729 728 727 727 727 729 731 734
679 680 688 693 696 694 696 696 697 700 699 700 705 710 714 719 721 719 721 711 709 717 737 740 746 746 746 744 743 743 742 741 740 741 739 737 735 734 734 733 733 734 737 740
687 694 692 695 695 699 700 701 704 707 704 702 707 707 711 723 718 713 712 713 729 743 743 750 749 747 746 746 745 745 744 744 745 744 743 741 740 740 740 740 740 742 743 747
697 705 705 701 704 709 710 710 712 710 706 704 706 708 710 710 716 721 730 743 748 750 752 752 751 750 749 747 747 746 746 747 747 747 746 746 745 746 746 747 749 750 751 754